Погода в Ийсалми

Финляндия     63°33′13″N   27°12′11″E
темп.,
°C
ветер,
м/с
пор.,
м/с
влажн.,
%
обл.,
%
осадки,
мм/ч
давл.,
гПа
погр.,
м
28 ноября, вс
вс2823:00−14всв119868 0.0 101112
02:00−14св119873 0.0 101114
05:00−14св1597100 0.0 1010102
08:00−13св169797 0.0 1010129
11:00−12св169690 0.0 1011145
14:00−12ссв129791 0.0 101143
17:00−12всв2693100 0.0 1011109
20:00−12всв1194100 0.0 101228
29 ноября, пн
пн2923:00−13св1196100 0.0 101413
02:00−13всв1295100 0.0 101442
05:00−12в1394100 0.0 101460
08:00−11в1693100 0.0 1014163
11:00−9вюв2988100 0.0 1014292
14:00−10в259389 0.0 1013138
17:00−11всв2996100 0.0 1011240
20:00−10всв41288100 0.0 1009488
30 ноября, вт
вт3023:00−10всв41288100 0.0 1006563
02:00−9всв41181100 0.0 1002596
05:00−9св41082100 0.0 998662
08:00−9св41292100 0.3 995635
11:00−8св41192100 0.6 992780
14:00−8ссв4993100 1.3 988838
17:00−8с4993100 0.6 986757
20:00−7с3894100 1.5 985769
1 декабря, ср
ср123:00−7ссз4994100 0.9 984743
02:00−8ссз41094100 2.4 984651
05:00−9ссз41093100 1.3 984612
08:00−9сз41094100 2.6 985596
11:00−9сз41093100 1.2 986551
14:00−9сз4993100 2.0 985615
17:00−9зсз41093100 0.6 986545
20:00−9зсз31093100 0.8 986515
2 декабря, чт
чт223:00−9зсз389498 0.1 987437
02:00−11з289691 0.2 987208
05:00−13зюз149993 0.1 98778
08:00−15зюз1110096 0.1 98812
11:00−15юз1110095 0.1 98911
14:00−16зсз0010091 0.1 9909
17:00−18зсз1110099 0.0 9919
20:00−19зсз11100100 0.1 9939